Regional Weather Roundup
Issued by NWS Jackson, KY

Home | Current Version | Previous Version | Text Only | Print | Product List | Glossary On
Versions: 1 2 3 4 5 6 7 8 9 10 11 12 13 14 15 16 17 18 19 20 21 22 23 24 25 26 27
000
ASUS43 KJKL 292110
RWRJKL

EAST KENTUCKY HOURLY WEATHER ROUNDUP
NATIONAL WEATHER SERVICE JACKSON KY
500 PM EDT FRI JUL 29 2016

NOTE: "FAIR" INDICATES FEW OR NO CLOUDS BELOW 12,000 FEET WITH
NO SIGNIFICANT WEATHER AND/OR OBSTRUCTIONS TO VISIBILITY.

* THESE REPORTS ARE NOT UNDER NWS QUALITY CONTROL AND MAY NOT
  REPORT WEATHER SUCH AS PRECIPITATION AND FOG.

KYZ079-080-083-085-087-088-110-112-115-119-120-292200
...EASTERN KENTUCKY...

CITY           SKY/WX    TMP DP  RH WIND       PRES   REMARKS
JACKSON        LGT RAIN  74  72  93 CALM      29.97F
LONDON         CLOUDY    74  69  85 S6        29.98F
SOMERSET*      MOSUNNY   73  70  88 SW5       29.97F
MONTICELLO*    CLOUDY   N/A N/A N/A VRB3      29.98F
WILLIAMSBURG*  CLOUDY    72  72 100 SE3       29.99S
MIDDLESBORO*   LGT RAIN  72  71  98 E3        30.00F
HARLAN APT*      N/A     70  68  94 CALM      30.03R
PIKE CO APT*   PTSUNNY   77  72  83 CALM      29.97S
BIG SANDY APT* CLOUDY    81  73  75 SW7       29.96S
MOREHEAD APT*  PTCLDY    82  72  69 CALM      29.95S
ASHLAND*       SUNNY     86  72  62 SW6       29.89F HX  92
$$

KYZ035-036-041-042-044-050-067-078-099-292200
...CENTRAL KENTUCKY...

CITY           SKY/WX    TMP DP  RH WIND       PRES   REMARKS
MT STERLING*   LGT RAIN  73  72  94 SW8       29.95F
FLEMING/MASON* MOSUNNY   85  72  65 CALM      29.92F HX  90
DANVILLE*      PTSUNNY   84  72  65 SW10      29.94F
LEXINGTON      MOSUNNY   84  73  69 SW7       29.92F HX  90
FRANKFORT      SUNNY     85  70  60 SW9       29.90F
LOUISVILLE     PTSUNNY   88  70  55 SW12      29.88F HX  93
LEBANON*         N/A     84  73  70 SW7       29.92F HX  91
GLASGOW*       CLOUDY    79  71  74 CALM      29.94S
BOWLING GREEN  SUNNY     85  74  69 S7        29.92F HX  92
$$

KYZ091>093-OHZ055-061-077-WVZ005-015-034-035-042-292200
...SOUTHERN OHIO/WEST VIRGINIA...

CITY           SKY/WX    TMP DP  RH WIND       PRES   REMARKS
COVINGTON      PTSUNNY   85  71  63 SW7       29.89F HX  90
COLUMBUS       PTSUNNY   79  71  76 SW5       29.90F
DAYTON         PTSUNNY   80  67  64 E9        29.91R
WILMINGTON     CLOUDY    75  69  81 N9        29.92R THUNDER
HUNTINGTON       N/A     84  69  60 SW5       29.91F
CHARLESTON     PTSUNNY   83  68  60 SE5       29.93F
PINEVILLE*     DRIZZLE   78  71  78 MISG      30.04S
BECKLEY          N/A     79  64  60 VRB5      30.03S
BLUEFIELD      LGT RAIN  71  68  90 W8        30.07R
LOGAN CO APT*  MOCLDY    81  72  74 CALM      29.97S
$$

VAZ002-007-008-TNZ017-027-036-066-071-292200
...SOUTHWEST VIRGINIA/EAST TENNESSEE...

CITY           SKY/WX    TMP DP  RH WIND       PRES   REMARKS
WISE*          CLOUDY   N/A N/A N/A NW3       30.05F
JONESVILLE*    LGT RAIN  75  68  78 W15G25    30.03R
ABINGDON*      PTSUNNY   84  68  58 W3        30.02S
BRISTOL        PTSUNNY   84  69  60 SE6       29.98F
MORRISTOWN*    MOCLDY    88  68  51 NW12      29.96S HX  91
SEVIERVILLE*     N/A     90  66  45 W7        29.94S HX  92
KNOXVILLE      TSTM      75  64  68 S18G46    29.96R
OAK RIDGE      PTSUNNY   88  69  53 VRB7      29.97S HX  92
CROSSVILLE     CLOUDY    79  66  64 W12       30.02F
NASHVILLE      PTSUNNY   87  72  60 SW12G17   29.93F HX  93
$$

...KEY TO REMARKS...
VSB - VISIBILITY IN MILES
WCI - WIND CHILL INDEX
HX  - HEAT INDEX

$$




USA.gov is the U.S. government's official web portal to all federal, state and local government web resources and services.